Find Starlink 3529

NORAD ID: 51724 Int'l Des: 2022-016 Owner: SPXS Country: US Constellation: starlink operational
LEOCIRCULAR

当前视图

正在加载3D地球...

About Starlink 3529

Starlink 3529 (NORAD 51724) is a starlink constellation satellite (v1.5) launched Feb 21, 2022 by SPXS of US. It operates in LEO, CIRCULAR orbit with a mass of 297.00 kg.

即将过境

Passes for default location (London). Set your location on the main map for personalized predictions.

高度历史

Loading altitude history...

两行轨道根数

1 51724U 22016L 26264.13858038 .00000019 00000-0 11912-4 0 9994
2 51724 53.1590 160.7922 0001155 88.5588 271.5546 15.33551008253073
Epoch: Sep 21, 2026 • Age: 9 hours

当前状态

高度 466.3 km
远地点 / 近地点 N/A
速度 7.63 km/s
星下点 -1.05°S, 32.8°W
发射日期 Feb 21, 2022
运行时间 4.5 years
类型 internet

技术详情

分类 Payload
质量 297.00 kg
干质量 275.00 kg
长度 0.20 m
跨度 9.00 m
形状 ? Box + pan
制造商 SPXS
平台类型 Starlink
阶段状态 In Orbit
所有者/国家 SPXS/US

Most Searched